Location: Étouvelles
(49.5207°N, 3.5808°E)
Time: 08:59:13
(UTC+00:00)

Lacrosse 5 - Pass Details

Date: 03 February 2023
Orbit: 714 x 724 km, 57.0° (Epoch: 09 March)

Event Time Altitude Azimuth Distance (km) Brightness Sun altitude
Rises 18:25:54 0° 230° (SW) 3,126 6.1 -16.7°
Reaches altitude 10° 18:28:16 10° 230° (SW) 2,210 5.2 -17.0°
Maximum altitude 18:33:22 81° 143° (SE) 738 1.8 -17.9°
Enters shadow 18:35:50 31° 60° (ENE) 1,251 2.6 -18.3°
